DW8050 Weather Reports


Display with metric or nautical units.
time (UTC)temp
F
wind
direction
speed
MPH
gust
MPH
rain 1hr
in
rain 24hr
in
rain mn
in
humidity
%
barometer
mb
20260504050519 33 340 2.0 3.0 0.00 0.00 0.00 85 1004.8
20260504045514 34 342 2.0 3.0 0.00 0.00 0.00 86 1004.9
20260504045014 35 343 1.0 1.0 0.00 0.00 0.00 86 1004.9
20260504044532 35 343 0.0 1.0 0.00 0.00 0.00 86 1005.0
20260504044018 35 343 0.0 1.0 0.00 0.00 0.00 87 1005.0
20260504043517 35 342 0.0 1.0 0.00 0.00 0.00 87 1005.1
20260504043031 35 343 1.0 2.0 0.00 0.00 0.00 87 1005.1
20260504042515 35 343 1.0 2.0 0.00 0.00 0.00 86 1005.2
20260504042015 36 343 1.0 2.0 0.00 0.00 0.00 84 1005.2
20260504041535 36 343 1.0 2.0 0.00 0.00 0.00 83 1005.1
20260504041015 36 0 0.0 1.0 0.00 0.00 0.00 83 1005.1
20260504040519 37 343 0.0 1.0 0.00 0.00 0.00 82 1005.2
20260504040033 37 343 0.0 1.0 0.00 0.00 0.00 82 1005.1
20260504035516 37 343 1.0 1.0 0.00 0.00 0.00 81 1005.2
20260504035018 37 343 0.0 1.0 0.00 0.00 0.00 81 1005.3
20260504034541 38 343 1.0 2.0 0.00 0.00 0.00 81 1005.2
20260504034016 38 342 1.0 2.0 0.00 0.00 0.00 81 1005.4
20260504033521 38 327 1.0 2.0 0.00 0.00 0.00 82 1005.3
20260504033031 38 327 1.0 2.0 0.00 0.00 0.00 81 1005.3
20260504032513 38 0 0.0 1.0 0.00 0.00 0.00 80 1005.4
20260504032012 37 0 0.0 0.0 0.00 0.00 0.00 82 1005.4
20260504031537 37 0 0.0 0.0 0.00 0.00 0.00 82 1005.4
20260504031015 37 0 0.0 0.0 0.00 0.00 0.00 81 1005.5
20260504030515 38 0 0.0 0.0 0.00 0.00 0.00 81 1005.5
20260504030039 38 0 0.0 0.0 0.00 0.00 0.00 81 1005.6
20260504025520 38 0 0.0 0.0 0.00 0.00 0.00 81 1005.6
20260504025015 38 0 0.0 0.0 0.00 0.00 0.00 79 1005.6
20260504024535 38 0 0.0 0.0 0.00 0.00 0.00 80 1005.6
20260504024020 38 0 0.0 0.0 0.00 0.00 0.00 79 1005.7
20260504023515 38 0 0.0 1.0 0.00 0.00 0.00 78 1005.7
20260504023030 39 0 0.0 2.0 0.00 0.00 0.00 79 1005.7
20260504022518 39 0 0.0 2.0 0.00 0.00 0.00 78 1005.8
20260504022015 40 250 1.0 2.0 0.00 0.00 0.00 75 1005.8
20260504021530 41 250 1.0 2.0 0.00 0.00 0.00 73 1005.7
20260504021017 42 143 0.0 1.0 0.00 0.00 0.00 70 1005.9
20260504020516 43 0 0.0 1.0 0.00 0.00 0.00 67 1005.8
20260504020030 44 0 0.0 1.0 0.00 0.00 0.00 66 1005.9
20260504015516 44 0 0.0 1.0 0.00 0.00 0.00 66 1005.8
20260504015018 44 143 0.0 1.0 0.00 0.00 0.00 66 1005.8
20260504014531 44 143 0.0 1.0 0.00 0.00 0.00 67 1005.9
20260504014015 44 143 0.0 1.0 0.00 0.00 0.00 66 1005.9
20260504013515 45 0 0.0 1.0 0.00 0.00 0.00 65 1005.9
20260504013032 45 0 0.0 1.0 0.00 0.00 0.00 65 1005.9
20260504012518 45 0 0.0 4.0 0.00 0.00 0.00 64 1005.8
20260504012016 46 143 1.0 4.0 0.00 0.00 0.00 64 1005.8
20260504011532 47 0 0.0 1.0 0.00 0.00 0.00 58 1005.8
20260504011016 47 51 0.0 1.0 0.00 0.00 0.00 57 1005.8
20260504010513 47 51 0.0 3.0 0.00 0.00 0.00 57 1005.8
20260504010029 47 51 1.0 3.0 0.00 0.00 0.00 56 1005.8
20260504005512 48 51 2.0 3.0 0.00 0.00 0.00 55 1005.9
20260504005016 48 343 0.0 1.0 0.00 0.00 0.00 55 1005.7
20260504004530 48 0 0.0 1.0 0.00 0.00 0.00 54 1005.8
20260504004015 48 343 0.0 1.0 0.00 0.00 0.00 54 1005.7
20260504003515 48 343 0.0 1.0 0.00 0.00 0.00 54 1005.7
20260504003036 48 343 0.0 1.0 0.00 0.00 0.00 53 1005.6
20260504002516 48 343 1.0 1.0 0.00 0.00 0.00 52 1005.6
20260504002016 48 343 1.0 1.0 0.00 0.00 0.00 54 1005.6
20260504001530 49 0 0.0 1.0 0.00 0.00 0.00 53 1005.6
20260504001017 50 343 1.0 1.0 0.00 0.00 0.00 50 1005.5
20260504000515 50 342 0.0 1.0 0.00 0.00 0.00 46 1005.6
20260504000030 50 343 1.0 1.0 0.00 0.00 0.00 45 1005.6
20260503235515 51 342 0.0 1.0 0.00 0.00 0.00 42 1005.5
20260503235015 51 342 0.0 2.0 0.00 0.00 0.00 42 1005.4
20260503234533 51 342 1.0 2.0 0.00 0.00 0.00 42 1005.5
20260503234016 51 342 1.0 2.0 0.00 0.00 0.00 42 1005.5
20260503233516 51 342 1.0 2.0 0.00 0.00 0.00 41 1005.5
20260503233033 52 340 1.0 4.0 0.00 0.00 0.00 41 1005.4
20260503232516 52 0 1.0 4.0 0.00 0.00 0.00 42 1005.5
20260503232016 52 318 1.0 4.0 0.00 0.00 0.00 39 1005.4
20260503231544 52 315 1.0 4.0 0.00 0.00 0.00 38 1005.4
20260503231016 53 317 2.0 3.0 0.00 0.00 0.00 38 1005.5
20260503230516 53 320 2.0 3.0 0.00 0.00 0.00 36 1005.5
20260503230033 53 284 1.0 6.0 0.00 0.00 0.00 36 1005.5
20260503225515 53 290 2.0 7.0 0.00 0.00 0.00 34 1005.5
20260503225016 53 282 3.0 7.0 0.00 0.00 0.00 33 1005.5
20260503224532 53 272 2.0 8.0 0.00 0.00 0.00 34 1005.5
20260503224017 53 282 4.0 10.0 0.00 0.00 0.00 34 1005.5
20260503223517 53 297 3.0 10.0 0.00 0.00 0.00 34 1005.5
20260503223030 53 297 3.0 7.0 0.00 0.00 0.00 35 1005.5
20260503222515 53 306 2.0 9.0 0.00 0.00 0.00 34 1005.5
20260503222016 53 292 3.0 9.0 0.00 0.00 0.00 34 1005.5
20260503221534 53 282 4.0 8.0 0.00 0.00 0.00 34 1005.5
20260503221016 53 278 3.0 7.0 0.00 0.00 0.00 34 1005.5
20260503220516 53 289 3.0 7.0 0.00 0.00 0.00 33 1005.4
20260503220038 53 277 1.0 4.0 0.00 0.00 0.00 34 1005.5
20260503215515 53 286 1.0 4.0 0.00 0.01 0.00 34 1005.4
20260503215016 53 300 2.0 4.0 0.00 0.01 0.00 34 1005.3
20260503214540 53 309 2.0 6.0 0.00 0.01 0.00 33 1005.4
20260503214019 53 286 3.0 9.0 0.00 0.01 0.00 34 1005.3
20260503213516 53 261 4.0 9.0 0.00 0.01 0.00 33 1005.4
20260503213049 53 241 4.0 7.0 0.00 0.01 0.00 34 1005.4
20260503212516 53 246 5.0 8.0 0.00 0.01 0.00 33 1005.3
20260503212016 53 270 4.0 9.0 0.00 0.01 0.00 34 1005.4
20260503211533 53 256 6.0 9.0 0.00 0.01 0.00 33 1005.4
20260503211019 53 246 5.0 9.0 0.00 0.01 0.00 34 1005.4
20260503210516 53 252 4.0 9.0 0.00 0.01 0.00 37 1005.3
20260503210030 53 269 6.0 9.0 0.00 0.01 0.00 33 1005.3
20260503205517 53 261 5.0 8.0 0.00 0.01 0.00 35 1005.4
20260503205020 53 307 4.0 9.0 0.00 0.01 0.00 33 1005.4
20260503204549 53 288 5.0 11.0 0.00 0.01 0.00 33 1005.3
20260503204016 54 261 6.0 12.0 0.00 0.01 0.00 35 1005.3
20260503203517 54 298 5.0 12.0 0.00 0.01 0.00 33 1005.3
20260503203036 54 267 6.0 12.0 0.00 0.01 0.00 34 1005.4
20260503202517 54 287 7.0 12.0 0.00 0.01 0.00 35 1005.4
20260503202016 54 270 7.0 10.0 0.00 0.01 0.00 34 1005.5
20260503201536 54 278 5.0 13.0 0.00 0.01 0.00 33 1005.5
20260503201016 54 248 6.0 13.0 0.00 0.01 0.00 34 1005.5
20260503200516 54 244 4.0 13.0 0.00 0.01 0.00 35 1005.5
20260503200031 54 310 6.0 13.0 0.00 0.01 0.00 32 1005.6
20260503195515 54 288 5.0 13.0 0.00 0.01 0.00 35 1005.7
20260503195015 54 350 5.0 9.0 0.00 0.01 0.00 36 1005.7
20260503194532 53 290 3.0 8.0 0.00 0.01 0.00 35 1005.8
20260503194017 54 331 3.0 9.0 0.00 0.01 0.00 34 1006.0
20260503193518 53 286 3.0 9.0 0.00 0.01 0.00 35 1006.0
20260503193032 53 314 5.0 12.0 0.00 0.01 0.00 38 1006.1
20260503192517 53 351 5.0 12.0 0.00 0.01 0.00 35 1006.2
20260503192016 53 333 4.0 9.0 0.00 0.01 0.00 38 1006.4
20260503191530 52 333 3.0 12.0 0.00 0.01 0.00 38 1006.4
20260503191018 52 281 7.0 14.0 0.00 0.01 0.00 40 1006.5
20260503190516 52 288 8.0 15.0 0.00 0.01 0.00 41 1006.6
20260503190029 53 282 6.0 15.0 0.00 0.01 0.00 38 1006.6
20260503185520 52 307 5.0 15.0 0.00 0.01 0.00 39 1006.6
20260503185016 51 339 5.0 9.0 0.00 0.01 0.00 41 1006.7
20260503184534 51 346 5.0 12.0 0.00 0.01 0.00 41 1006.8
20260503184020 51 273 6.0 12.0 0.00 0.01 0.00 42 1006.7
20260503183516 51 279 5.0 16.0 0.00 0.01 0.00 41 1006.9
20260503183040 51 261 5.0 16.0 0.00 0.01 0.00 41 1007.0
20260503182515 52 298 7.0 16.0 0.00 0.01 0.00 41 1007.1
20260503182016 51 28 5.0 13.0 0.00 0.01 0.00 45 1007.2
20260503181532 50 323 3.0 11.0 0.00 0.01 0.00 46 1007.3
20260503181017 50 311 4.0 11.0 0.00 0.01 0.00 45 1007.3
20260503180517 50 326 4.0 9.0 0.00 0.01 0.00 45 1007.3
20260503180034 50 301 5.0 9.0 0.00 0.01 0.00 46 1007.4
20260503175520 49 271 3.0 8.0 0.00 0.01 0.00 48 1007.5
20260503175016 49 316 4.0 9.0 0.00 0.01 0.00 47 1007.5
20260503174545 49 271 5.0 10.0 0.00 0.01 0.00 47 1007.6
20260503174017 49 319 2.0 10.0 0.00 0.01 0.00 48 1007.6
20260503173516 49 285 5.0 10.0 0.00 0.01 0.00 48 1007.6
20260503173032 49 282 5.0 10.0 0.00 0.01 0.00 49 1007.7
20260503172516 48 261 4.0 12.0 0.00 0.01 0.00 50 1007.6
20260503172016 48 250 8.0 12.0 0.00 0.01 0.00 52 1007.9
20260503171535 47 239 3.0 11.0 0.00 0.01 0.00 52 1008.0
20260503171020 47 242 4.0 12.0 0.00 0.01 0.00 51 1008.1
20260503170516 47 297 5.0 14.0 0.00 0.01 0.00 50 1008.2
20260503150521 46 257 2.0 9.0 0.00 0.01 0.00 51 1009.4
20260503131017 41 5 1.0 3.0 0.00 0.01 0.00 72 1010.5
20260503130518 41 316 1.0 3.0 0.00 0.01 0.00 72 1010.5
20260503110521 35 19 1.0 2.0 0.00 0.01 0.00 89 1010.2
20260503081545 35 22 0.0 2.0 0.00 0.01 0.00 93 1010.6
20260503081019 35 22 1.0 2.0 0.00 0.01 0.00 94 1010.6
20260503080516 35 22 1.0 2.0 0.00 0.01 0.00 95 1010.5
20260503072518 34 0 0.0 0.0 0.00 0.01 0.00 94 1010.4
20260503072017 34 0 0.0 0.0 0.00 0.01 0.00 94 1010.5
20260503071550 34 0 0.0 0.0 0.00 0.01 0.00 94 1010.4
20260503071014 34 0 0.0 0.0 0.00 0.01 0.00 94 1010.5
20260503070514 34 0 0.0 0.0 0.00 0.01 0.00 93 1010.5